QPF
0.00 0.00 0.00 0.00 0.00 0.00 0.00 0.00 0.00 0.00 0.00 0.00 0.00 0.00 0.00 0.00 0.00 0.00 0.00 0.00 0.00 0.00 0.00 0.00 0.00 0.00 0.00 0.00 0.00 0.00 0.00 0.00 0.00 0.00 0.00 0.00 0.00 0.00 0.00 0.00 0.00 0.00 0.00
0.00 0.00 0.00 0.00 0.00 0.00 0.00 0.00 0.00 0.00 0.00 0.00 0.00 0.00 0.00 0.00 0.00 0.00 0.00 0.00 0.00 0.00 0.00 0.00 0.00 0.00 0.00 0.00 0.00 0.00 0.00 0.00 0.00 0.00 0.00 0.00 0.00 0.00 0.00 0.00 0.00 0.00 0.00
0.00 0.00 0.00 0.00 0.00 0.00 0.00 0.00 0.00 0.00 0.00 0.00 0.00 0.00 0.00 0.00 0.00 0.00 0.00 0.00 0.00 0.00 0.00 0.00 0.00 0.00 0.00 0.00 0.00 0.00 0.00 0.00 0.00 0.00 0.00 0.00 0.00 0.00 0.00 0.00 0.00 0.00 0.00
0.00 0.00 0.00 0.00 0.00 0.00 0.00 0.00 0.00 0.00 0.00 0.00 0.00 0.00 0.00 0.00 0.00 0.00 0.00 0.00 0.00 0.00 0.00 0.00 0.00 0.00 0.00 0.00 0.00 0.00 0.00 0.00 0.00 0.00 0.00 0.00 0.00 0.00 0.00 0.00 0.00 0.00 0.00
0.00 0.00 0.00 0.00 0.00 0.00 0.00 0.00 0.00 0.00 0.00 0.00 0.00 0.00 0.00 0.00 0.00 0.00 0.00 0.00 0.00 0.00 0.00 0.00 0.00 0.00 0.00 0.00 0.00 0.00 0.00 0.00 0.00 0.00 0.00 0.00 0.00 0.00 0.00 0.00 0.00 0.00 0.00
0.01 0.00 0.00 0.00 0.00 0.00 0.00 0.00 0.00 0.00 0.00 0.00 0.00 0.00 0.00 0.00 0.00 0.00 0.00 0.00 0.00 0.00 0.00 0.00 0.00 0.00 0.00 0.00 0.00 0.00 0.00 0.00 0.00 0.00 0.00 0.00 0.00 0.00 0.00 0.00 0.00 0.00 0.01
0.02 0.02 0.01 0.00 0.00 0.00 0.00 0.00 0.00 0.00 0.00 0.00 0.00 0.00 0.00 0.00 0.00 0.00 0.00 0.00 0.00 0.00 0.00 0.00 0.00 0.00 0.00 0.00 0.00 0.00 0.00 0.00 0.00 0.00 0.00 0.00 0.00 0.00 0.00 0.00 0.01 0.01 0.01
0.06 0.04 0.03 0.03 0.02 0.01 0.00 0.00 0.01 0.00 0.00 0.00 0.00 0.00 0.00 0.00 0.00 0.00 0.00 0.00 0.00 0.00 0.00 0.00 0.00 0.00 0.00 0.00 0.00 0.00 0.00 0.00 0.00 0.00 0.00 0.00 0.00 0.00 0.00 0.01 0.01 0.01 0.02
0.09 0.08 0.08 0.07 0.05 0.02 0.02 0.02 0.02 0.01 0.01 0.00 0.00 0.00 0.00 0.00 0.00 0.00 0.00 0.00 0.00 0.00 0.00 0.00 0.00 0.00 0.00 0.00 0.00 0.00 0.00 0.00 0.00 0.00 0.00 0.00 0.00 0.00 0.01 0.01 0.02 0.02 0.02
0.11 0.13 0.13 0.11 0.09 0.07 0.06 0.06 0.04 0.03 0.01 0.01 0.00 0.00 0.00 0.00 0.00 0.00 0.00 0.00 0.00 0.00 0.00 0.00 0.00 0.00 0.00 0.00 0.00 0.00 0.00 0.00 0.00 0.00 0.00 0.00 0.00 0.00 0.01 0.02 0.02 0.03 0.03
0.09 0.11 0.13 0.13 0.12 0.12 0.11 0.09 0.07 0.05 0.03 0.02 0.01 0.00 0.00 0.00 0.00 0.00 0.00 0.00 0.00 0.00 0.00 0.00 0.00 0.00 0.00 0.00 0.00 0.00 0.00 0.00 0.00 0.00 0.00 0.00 0.00 0.01 0.01 0.02 0.03 0.03 0.02
0.06 0.08 0.10 0.12 0.13 0.14 0.14 0.12 0.10 0.07 0.05 0.03 0.02 0.01 0.00 0.00 0.00 0.00 0.00 0.00 0.00 0.00 0.00 0.00 0.00 0.00 0.00 0.00 0.00 0.00 0.00 0.00 0.00 0.00 0.00 0.00 0.00 0.01 0.01 0.02 0.02 0.02 0.02
0.04 0.05 0.08 0.10 0.13 0.15 0.15 0.14 0.11 0.09 0.06 0.04 0.02 0.02 0.01 0.01 0.01 0.01 0.01 0.01 0.00 0.00 0.00 0.00 0.00 0.00 0.00 0.00 0.00 0.00 0.00 0.00 0.00 0.00 0.00 0.00 0.01 0.01 0.01 0.01 0.01 0.01 0.02
0.06 0.08 0.10 0.11 0.13 0.14 0.13 0.12 0.10 0.08 0.06 0.04 0.03 0.02 0.02 0.01 0.01 0.01 0.01 0.01 0.01 0.01 0.00 0.00 0.00 0.00 0.00 0.00 0.00 0.00 0.00 0.00 0.00 0.00 0.00 0.00 0.00 0.00 0.00 0.01 0.01 0.01 0.02
0.05 0.07 0.09 0.10 0.11 0.10 0.10 0.10 0.08 0.06 0.05 0.04 0.03 0.03 0.02 0.02 0.01 0.01 0.01 0.01 0.01 0.01 0.00 0.00 0.00 0.00 0.00 0.00 0.00 0.00 0.00 0.00 0.00 0.00 0.00 0.00 0.00 0.00 0.01 0.01 0.01 0.01 0.02
0.04 0.06 0.07 0.07 0.08 0.07 0.07 0.06 0.05 0.05 0.05 0.05 0.05 0.04 0.04 0.04 0.03 0.02 0.02 0.01 0.01 0.01 0.00 0.00 0.00 0.00 0.00 0.00 0.00 0.00 0.00 0.00 0.00 0.00 0.00 0.00 0.00 0.01 0.01 0.01 0.01 0.02 0.02
0.04 0.05 0.05 0.05 0.05 0.04 0.04 0.04 0.04 0.05 0.07 0.07 0.07 0.07 0.06 0.05 0.04 0.03 0.02 0.02 0.01 0.01 0.00 0.00 0.00 0.00 0.00 0.00 0.00 0.00 0.00 0.00 0.00 0.00 0.00 0.00 0.00 0.01 0.01 0.01 0.01 0.01 0.02
0.03 0.03 0.03 0.03 0.02 0.02 0.02 0.02 0.03 0.05 0.07 0.07 0.07 0.06 0.06 0.05 0.04 0.03 0.02 0.02 0.01 0.01 0.00 0.00 0.00 0.00 0.00 0.00 0.00 0.00 0.00 0.00 0.00 0.00 0.00 0.00 0.00 0.00 0.00 0.01 0.01 0.01 0.02
0.02 0.01 0.01 0.01 0.01 0.01 0.02 0.02 0.03 0.04 0.04 0.05 0.05 0.05 0.05 0.05 0.05 0.04 0.03 0.02 0.01 0.01 0.00 0.00 0.00 0.00 0.00 0.00 0.00 0.00 0.00 0.00 0.00 0.00 0.00 0.00 0.00 0.00 0.00 0.01 0.01 0.01 0.01
0.01 0.01 0.01 0.01 0.01 0.01 0.02 0.02 0.03 0.04 0.04 0.05 0.06 0.07 0.08 0.07 0.06 0.04 0.03 0.02 0.01 0.00 0.00 0.00 0.00 0.00 0.00 0.00 0.00 0.00 0.00 0.00 0.00 0.00 0.00 0.00 0.00 0.00 0.00 0.00 0.00 0.00 0.00
0.01 0.01 0.01 0.01 0.01 0.02 0.03 0.04 0.05 0.06 0.08 0.10 0.10 0.10 0.08 0.05 0.03 0.02 0.01 0.00 0.00 0.00 0.00 0.00 0.00 0.00 0.00 0.00 0.00 0.00 0.00 0.00 0.00 0.00 0.00 0.00 0.00 0.00 0.00 0.00 0.00 0.00 0.00
0.01 0.01 0.02 0.02 0.03 0.04 0.09 0.09 0.09 0.10 0.11 0.10 0.08 0.06 0.04 0.02 0.01 0.01 0.00 0.00 0.00 0.00 0.00 0.00 0.00 0.00 0.00 0.00 0.00 0.00 0.00 0.00 0.01 0.00 0.00 0.00 0.00 0.00 0.00 0.00 0.00 0.00 0.00
0.05 0.06 0.06 0.07 0.09 0.13 0.17 0.15 0.13 0.10 0.08 0.07 0.05 0.03 0.01 0.01 0.00 0.00 0.00 0.00 0.00 0.00 0.00 0.00 0.00 0.00 0.00 0.00 0.00 0.01 0.01 0.02 0.01 0.00 0.00 0.00 0.00 0.00 0.00 0.00 0.00 0.00 0.00
0.14 0.15 0.17 0.18 0.19 0.20 0.19 0.15 0.11 0.07 0.05 0.03 0.02 0.01 0.00 0.00 0.00 0.00 0.00 0.00 0.00 0.00 0.00 0.00 0.00 0.00 0.00 0.00 0.01 0.03 0.02 0.01 0.00 0.00 0.00 0.00 0.00 0.00 0.00 0.00 0.00 0.00 0.00
0.22 0.23 0.23 0.21 0.18 0.15 0.11 0.07 0.04 0.03 0.02 0.01 0.00 0.00 0.00 0.00 0.00 0.00 0.00 0.00 0.00 0.00 0.00 0.00 0.00 0.00 0.00 0.00 0.00 0.00 0.00 0.01 0.01 0.00 0.00 0.00 0.00 0.00 0.00 0.00 0.00 0.00 0.00
0.25 0.22 0.19 0.15 0.11 0.07 0.04 0.02 0.01 0.00 0.00 0.00 0.00 0.00 0.00 0.00 0.00 0.00 0.00 0.00 0.00 0.00 0.00 0.00 0.00 0.00 0.00 0.00 0.00 0.00 0.00 0.02 0.02 0.01 0.00 0.00 0.00 0.00 0.01 0.00 0.00 0.00 0.00
MSLP
1018.59 1018.85 1019.07 1019.28 1019.50 1019.76 1020.06 1020.41 1020.78 1021.13 1021.44 1021.68 1021.83 1021.90 1021.91 1021.90 1021.88 1021.90 1021.96 1022.08 1022.24 1022.43 1022.61 1022.78 1022.91 1023.00 1023.04 1023.05 1023.05 1023.03 1023.01 1023.00 1022.99 1022.99 1022.98 1022.95 1022.91 1022.83 1022.73 1022.59 1022.42 1022.23 1022.03
1018.36 1018.64 1018.88 1019.12 1019.39 1019.69 1020.05 1020.45 1020.87 1021.29 1021.65 1021.94 1022.14 1022.24 1022.27 1022.26 1022.23 1022.22 1022.26 1022.35 1022.49 1022.66 1022.84 1023.00 1023.13 1023.21 1023.24 1023.23 1023.20 1023.14 1023.09 1023.05 1023.02 1023.01 1023.01 1023.01 1022.99 1022.95 1022.87 1022.75 1022.60 1022.41 1022.21
1017.99 1018.31 1018.61 1018.91 1019.23 1019.60 1020.02 1020.48 1020.96 1021.44 1021.86 1022.20 1022.45 1022.59 1022.65 1022.65 1022.62 1022.59 1022.60 1022.66 1022.77 1022.91 1023.07 1023.22 1023.34 1023.41 1023.43 1023.40 1023.34 1023.25 1023.17 1023.09 1023.04 1023.01 1023.00 1023.00 1022.99 1022.96 1022.91 1022.81 1022.67 1022.49 1022.29
1017.48 1017.86 1018.24 1018.62 1019.02 1019.46 1019.95 1020.47 1021.00 1021.52 1021.99 1022.39 1022.68 1022.87 1022.97 1023.00 1022.98 1022.95 1022.95 1022.98 1023.06 1023.17 1023.30 1023.44 1023.55 1023.61 1023.62 1023.58 1023.50 1023.39 1023.27 1023.16 1023.07 1023.00 1022.97 1022.94 1022.93 1022.89 1022.84 1022.74 1022.61 1022.44 1022.25
1016.83 1017.28 1017.75 1018.22 1018.71 1019.23 1019.77 1020.34 1020.92 1021.48 1021.98 1022.42 1022.77 1023.02 1023.17 1023.24 1023.25 1023.24 1023.24 1023.26 1023.32 1023.41 1023.53 1023.65 1023.75 1023.81 1023.82 1023.78 1023.69 1023.56 1023.41 1023.26 1023.12 1023.01 1022.92 1022.86 1022.81 1022.75 1022.67 1022.57 1022.44 1022.27 1022.08
1016.05 1016.58 1017.12 1017.68 1018.26 1018.84 1019.44 1020.05 1020.65 1021.23 1021.76 1022.24 1022.63 1022.94 1023.16 1023.29 1023.37 1023.40 1023.43 1023.46 1023.52 1023.61 1023.72 1023.83 1023.94 1024.01 1024.03 1023.99 1023.89 1023.75 1023.58 1023.39 1023.20 1023.03 1022.88 1022.76 1022.65 1022.55 1022.44 1022.31 1022.16 1021.98 1021.79
1015.17 1015.75 1016.37 1017.01 1017.64 1018.28 1018.92 1019.54 1020.15 1020.74 1021.29 1021.80 1022.24 1022.62 1022.91 1023.13 1023.29 1023.39 1023.47 1023.55 1023.63 1023.74 1023.85 1023.98 1024.09 1024.18 1024.21 1024.19 1024.10 1023.95 1023.75 1023.53 1023.29 1023.06 1022.85 1022.65 1022.48 1022.31 1022.15 1021.99 1021.81 1021.62 1021.42
1014.22 1014.84 1015.51 1016.19 1016.88 1017.55 1018.20 1018.83 1019.44 1020.02 1020.58 1021.12 1021.61 1022.06 1022.44 1022.76 1023.02 1023.22 1023.37 1023.51 1023.64 1023.78 1023.93 1024.07 1024.21 1024.31 1024.36 1024.35 1024.27 1024.12 1023.91 1023.65 1023.37 1023.08 1022.81 1022.54 1022.30 1022.07 1021.86 1021.65 1021.44 1021.23 1021.01
1013.26 1013.89 1014.58 1015.29 1016.00 1016.68 1017.34 1017.96 1018.56 1019.14 1019.70 1020.26 1020.81 1021.32 1021.80 1022.23 1022.59 1022.89 1023.15 1023.36 1023.56 1023.74 1023.92 1024.10 1024.25 1024.38 1024.45 1024.45 1024.38 1024.23 1024.01 1023.73 1023.42 1023.08 1022.75 1022.43 1022.12 1021.84 1021.57 1021.32 1021.07 1020.84 1020.61
1012.32 1012.95 1013.64 1014.36 1015.07 1015.76 1016.41 1017.02 1017.61 1018.18 1018.76 1019.35 1019.94 1020.52 1021.09 1021.61 1022.08 1022.49 1022.84 1023.14 1023.40 1023.64 1023.85 1024.05 1024.23 1024.37 1024.46 1024.47 1024.41 1024.26 1024.03 1023.74 1023.40 1023.04 1022.67 1022.30 1021.96 1021.63 1021.32 1021.02 1020.75 1020.48 1020.23
1011.47 1012.07 1012.75 1013.47 1014.18 1014.87 1015.51 1016.12 1016.70 1017.28 1017.87 1018.49 1019.12 1019.77 1020.41 1021.02 1021.59 1022.09 1022.52 1022.89 1023.21 1023.49 1023.74 1023.96 1024.15 1024.30 1024.39 1024.41 1024.35 1024.20 1023.97 1023.67 1023.32 1022.94 1022.55 1022.16 1021.79 1021.43 1021.09 1020.76 1020.45 1020.16 1019.88
1010.72 1011.30 1011.97 1012.68 1013.39 1014.08 1014.73 1015.34 1015.94 1016.53 1017.14 1017.79 1018.46 1019.16 1019.86 1020.54 1021.17 1021.74 1022.24 1022.66 1023.03 1023.34 1023.61 1023.84 1024.04 1024.18 1024.27 1024.28 1024.21 1024.05 1023.82 1023.52 1023.17 1022.79 1022.39 1021.99 1021.60 1021.23 1020.86 1020.51 1020.18 1019.85 1019.55
1010.09 1010.66 1011.32 1012.03 1012.75 1013.45 1014.11 1014.75 1015.37 1015.99 1016.63 1017.31 1018.02 1018.75 1019.50 1020.22 1020.89 1021.50 1022.04 1022.50 1022.89 1023.22 1023.49 1023.72 1023.91 1024.04 1024.11 1024.10 1024.01 1023.85 1023.61 1023.30 1022.95 1022.57 1022.18 1021.78 1021.39 1021.00 1020.62 1020.25 1019.89 1019.53 1019.19
1009.60 1010.17 1010.83 1011.55 1012.28 1013.00 1013.69 1014.36 1015.02 1015.68 1016.35 1017.06 1017.80 1018.56 1019.33 1020.07 1020.76 1021.39 1021.94 1022.41 1022.81 1023.14 1023.41 1023.63 1023.79 1023.90 1023.93 1023.90 1023.79 1023.60 1023.34 1023.03 1022.67 1022.30 1021.90 1021.51 1021.12 1020.72 1020.33 1019.94 1019.55 1019.16 1018.79
1009.26 1009.83 1010.50 1011.23 1011.98 1012.73 1013.46 1014.18 1014.88 1015.58 1016.29 1017.03 1017.79 1018.56 1019.33 1020.07 1020.76 1021.38 1021.93 1022.40 1022.79 1023.11 1023.37 1023.56 1023.70 1023.77 1023.77 1023.69 1023.54 1023.32 1023.04 1022.71 1022.34 1021.96 1021.56 1021.17 1020.77 1020.37 1019.96 1019.55 1019.13 1018.72 1018.31
1009.07 1009.66 1010.34 1011.08 1011.86 1012.63 1013.40 1014.16 1014.91 1015.65 1016.40 1017.16 1017.93 1018.71 1019.46 1020.19 1020.86 1021.46 1021.99 1022.44 1022.81 1023.11 1023.35 1023.52 1023.62 1023.65 1023.60 1023.48 1023.29 1023.02 1022.70 1022.34 1021.95 1021.55 1021.15 1020.74 1020.33 1019.92 1019.50 1019.07 1018.62 1018.18 1017.74
1009.08 1009.67 1010.36 1011.11 1011.90 1012.70 1013.50 1014.30 1015.08 1015.86 1016.63 1017.41 1018.18 1018.94 1019.67 1020.36 1021.00 1021.57 1022.06 1022.49 1022.83 1023.11 1023.32 1023.47 1023.53 1023.52 1023.43 1023.26 1023.01 1022.70 1022.33 1021.93 1021.51 1021.08 1020.66 1020.23 1019.80 1019.37 1018.93 1018.47 1018.01 1017.54 1017.07
1009.29 1009.88 1010.56 1011.31 1012.11 1012.92 1013.74 1014.56 1015.37 1016.16 1016.95 1017.72 1018.48 1019.21 1019.90 1020.55 1021.14 1021.66 1022.11 1022.50 1022.82 1023.07 1023.25 1023.36 1023.40 1023.34 1023.21 1022.99 1022.69 1022.33 1021.91 1021.47 1021.01 1020.55 1020.09 1019.64 1019.19 1018.73 1018.26 1017.78 1017.29 1016.80 1016.33
1009.73 1010.30 1010.97 1011.71 1012.49 1013.31 1014.13 1014.95 1015.76 1016.56 1017.33 1018.09 1018.81 1019.49 1020.13 1020.71 1021.24 1021.70 1022.10 1022.44 1022.72 1022.94 1023.09 1023.17 1023.17 1023.08 1022.91 1022.64 1022.30 1021.89 1021.44 1020.95 1020.46 1019.96 1019.47 1018.99 1018.50 1018.02 1017.53 1017.02 1016.51 1016.00 1015.50
1010.40 1010.95 1011.60 1012.31 1013.07 1013.86 1014.66 1015.47 1016.26 1017.03 1017.78 1018.49 1019.15 1019.77 1020.33 1020.83 1021.28 1021.67 1022.00 1022.28 1022.51 1022.69 1022.81 1022.86 1022.83 1022.71 1022.50 1022.21 1021.84 1021.40 1020.91 1020.39 1019.87 1019.34 1018.82 1018.30 1017.79 1017.28 1016.75 1016.22 1015.68 1015.15 1014.63
1011.29 1011.81 1012.42 1013.10 1013.82 1014.57 1015.34 1016.11 1016.86 1017.59 1018.27 1018.91 1019.50 1020.03 1020.50 1020.91 1021.26 1021.55 1021.80 1022.01 1022.18 1022.31 1022.39 1022.40 1022.35 1022.21 1021.98 1021.68 1021.29 1020.84 1020.34 1019.81 1019.26 1018.72 1018.17 1017.63 1017.09 1016.54 1015.98 1015.41 1014.84 1014.28 1013.74
1012.35 1012.85 1013.41 1014.04 1014.71 1015.41 1016.13 1016.84 1017.53 1018.19 1018.80 1019.36 1019.85 1020.28 1020.64 1020.93 1021.17 1021.37 1021.52 1021.65 1021.74 1021.81 1021.84 1021.82 1021.75 1021.60 1021.37 1021.06 1020.69 1020.24 1019.75 1019.23 1018.68 1018.13 1017.57 1017.01 1016.44 1015.85 1015.26 1014.65 1014.04 1013.43 1012.85
1013.53 1013.99 1014.51 1015.09 1015.70 1016.33 1016.98 1017.61 1018.23 1018.80 1019.32 1019.78 1020.17 1020.49 1020.74 1020.92 1021.04 1021.12 1021.17 1021.21 1021.22 1021.23 1021.21 1021.16 1021.07 1020.92 1020.70 1020.41 1020.06 1019.65 1019.18 1018.68 1018.16 1017.61 1017.05 1016.47 1015.87 1015.26 1014.62 1013.96 1013.29 1012.64 1012.01
1014.75 1015.17 1015.64 1016.15 1016.69 1017.25 1017.81 1018.36 1018.88 1019.37 1019.80 1020.16 1020.44 1020.65 1020.79 1020.86 1020.87 1020.85 1020.80 1020.74 1020.68 1020.62 1020.55 1020.47 1020.37 1020.22 1020.03 1019.77 1019.46 1019.09 1018.67 1018.21 1017.71 1017.18 1016.63 1016.04 1015.42 1014.76 1014.08 1013.37 1012.64 1011.93 1011.23
1015.92 1016.30 1016.72 1017.16 1017.61 1018.08 1018.55 1019.01 1019.44 1019.83 1020.17 1020.44 1020.64 1020.75 1020.80 1020.77 1020.69 1020.57 1020.44 1020.30 1020.17 1020.05 1019.94 1019.84 1019.72 1019.59 1019.42 1019.20 1018.93 1018.61 1018.24 1017.82 1017.35 1016.84 1016.29 1015.69 1015.05 1014.36 1013.63 1012.86 1012.08 1011.30 1010.54
1017.01 1017.34 1017.68 1018.04 1018.41 1018.78 1019.15 1019.52 1019.86 1020.16 1020.42 1020.61 1020.74 1020.79 1020.76 1020.67 1020.52 1020.34 1020.14 1019.94 1019.75 1019.59 1019.44 1019.31 1019.19 1019.06 1018.91 1018.72 1018.49 1018.21 1017.88 1017.49 1017.05 1016.55 1016.00 1015.39 1014.73 1014.00 1013.23 1012.41 1011.58 1010.73 1009.92
Thickness
5669 5666 5663 5661 5658 5655 5653 5650 5648 5645 5643 5641 5640 5638 5636 5634 5632 5631 5629 5627 5625 5622 5620 5617 5616 5614 5613 5612 5611 5610 5609 5608 5607 5607 5607 5608 5608 5608 5609 5611 5611 5612 5613
5666 5662 5659 5656 5654 5651 5648 5646 5643 5640 5637 5635 5633 5630 5629 5627 5625 5623 5621 5619 5617 5614 5611 5609 5607 5606 5604 5604 5603 5602 5601 5600 5599 5599 5599 5599 5599 5599 5600 5601 5602 5603 5604
5663 5660 5656 5653 5650 5647 5644 5640 5636 5633 5630 5628 5625 5623 5621 5619 5617 5615 5613 5611 5609 5606 5603 5601 5598 5597 5595 5595 5594 5593 5592 5591 5590 5590 5590 5590 5590 5591 5591 5592 5593 5594 5595
5661 5657 5654 5651 5647 5643 5640 5635 5631 5626 5623 5620 5618 5616 5614 5611 5609 5607 5605 5603 5601 5598 5595 5592 5590 5588 5586 5585 5585 5584 5583 5583 5582 5581 5581 5581 5581 5581 5582 5583 5583 5584 5585
5660 5656 5652 5648 5644 5639 5635 5631 5626 5622 5617 5614 5611 5608 5606 5604 5602 5600 5597 5595 5593 5590 5587 5584 5581 5579 5577 5576 5576 5575 5574 5574 5573 5573 5572 5572 5572 5572 5573 5573 5574 5574 5576
5659 5654 5650 5646 5641 5635 5631 5627 5621 5617 5612 5608 5606 5601 5598 5597 5595 5593 5590 5588 5585 5582 5579 5576 5574 5571 5569 5568 5567 5566 5565 5565 5564 5564 5563 5563 5563 5563 5563 5564 5564 5565 5566
5657 5653 5649 5643 5639 5634 5629 5624 5618 5612 5605 5602 5597 5592 5590 5588 5587 5585 5583 5580 5577 5574 5571 5568 5566 5563 5561 5560 5558 5557 5556 5555 5555 5555 5554 5554 5554 5554 5554 5554 5555 5555 5557
5656 5651 5648 5643 5637 5632 5626 5621 5616 5608 5602 5598 5594 5588 5584 5580 5579 5578 5575 5573 5570 5567 5564 5561 5558 5555 5553 5551 5549 5548 5546 5545 5545 5545 5545 5545 5545 5545 5545 5545 5545 5545 5546
5653 5650 5645 5641 5635 5631 5626 5620 5616 5609 5600 5592 5592 5590 5582 5580 5574 5569 5566 5565 5562 5559 5556 5553 5550 5547 5544 5542 5540 5538 5537 5535 5534 5534 5534 5534 5534 5534 5535 5535 5535 5536 5536
5650 5647 5643 5638 5633 5629 5625 5620 5615 5610 5602 5591 5584 5582 5581 5579 5571 5563 5558 5555 5553 5551 5547 5544 5541 5538 5535 5532 5530 5528 5526 5525 5524 5523 5523 5523 5523 5523 5523 5524 5524 5525 5525
5647 5643 5639 5634 5630 5626 5622 5617 5611 5606 5601 5594 5585 5577 5571 5567 5565 5563 5555 5548 5544 5541 5538 5535 5531 5528 5524 5521 5519 5517 5515 5513 5512 5511 5510 5510 5511 5511 5511 5512 5512 5512 5512
5639 5637 5634 5630 5626 5621 5617 5612 5606 5601 5596 5591 5584 5578 5572 5566 5560 5556 5550 5542 5536 5531 5527 5524 5520 5517 5513 5509 5507 5505 5502 5500 5498 5497 5497 5498 5498 5498 5498 5498 5497 5497 5497
5632 5630 5627 5624 5620 5615 5610 5604 5598 5592 5588 5583 5577 5571 5566 5561 5555 5548 5541 5532 5525 5519 5515 5513 5509 5505 5501 5497 5494 5492 5489 5486 5485 5484 5484 5484 5484 5483 5483 5482 5482 5481 5481
5626 5624 5619 5616 5612 5606 5601 5594 5588 5582 5577 5571 5566 5560 5554 5548 5544 5538 5530 5521 5513 5506 5502 5500 5497 5492 5488 5485 5481 5479 5476 5473 5471 5470 5470 5469 5468 5467 5466 5466 5465 5465 5465
5612 5610 5607 5603 5600 5596 5590 5584 5577 5571 5565 5559 5553 5548 5542 5535 5530 5525 5518 5512 5504 5497 5492 5489 5484 5480 5476 5472 5469 5466 5462 5459 5457 5456 5454 5453 5452 5451 5450 5450 5449 5448 5448
5595 5593 5591 5588 5585 5582 5577 5571 5565 5559 5553 5547 5541 5535 5529 5522 5516 5510 5504 5498 5491 5485 5480 5476 5472 5468 5464 5460 5455 5452 5448 5445 5442 5440 5439 5438 5437 5435 5434 5433 5432 5431 5429
5576 5576 5575 5572 5570 5567 5563 5558 5552 5547 5540 5534 5528 5522 5516 5510 5503 5496 5490 5484 5477 5470 5467 5464 5458 5454 5450 5446 5441 5437 5433 5430 5426 5423 5422 5421 5420 5418 5417 5415 5413 5411 5409
5560 5560 5560 5558 5555 5552 5548 5544 5539 5533 5528 5521 5515 5509 5502 5497 5490 5483 5477 5471 5463 5457 5452 5448 5444 5439 5435 5430 5426 5422 5418 5414 5410 5407 5405 5404 5402 5399 5396 5393 5390 5388 5385
5543 5544 5544 5543 5540 5537 5534 5530 5525 5519 5514 5508 5503 5496 5490 5484 5477 5471 5465 5459 5452 5445 5438 5432 5430 5425 5420 5414 5410 5406 5402 5398 5394 5390 5387 5384 5381 5377 5373 5369 5366 5363 5359
5526 5527 5528 5527 5525 5523 5519 5515 5510 5505 5499 5494 5488 5483 5477 5471 5465 5460 5454 5447 5439 5432 5425 5419 5415 5410 5404 5398 5392 5389 5389 5382 5377 5371 5368 5364 5359 5354 5349 5345 5342 5340 5338
5509 5510 5511 5510 5508 5507 5504 5501 5496 5491 5485 5480 5474 5469 5464 5459 5454 5448 5442 5435 5428 5420 5412 5406 5401 5396 5389 5382 5376 5372 5370 5367 5362 5353 5352 5344 5337 5333 5327 5324 5321 5320 5319
5492 5494 5495 5495 5494 5493 5490 5486 5482 5477 5473 5468 5462 5457 5452 5447 5441 5435 5430 5425 5417 5408 5399 5392 5387 5380 5373 5365 5360 5354 5350 5347 5346 5336 5330 5328 5317 5316 5313 5309 5306 5305 5305
5478 5479 5481 5481 5481 5479 5477 5474 5470 5465 5461 5455 5450 5444 5439 5433 5426 5421 5416 5410 5402 5394 5388 5380 5372 5363 5356 5349 5343 5338 5331 5326 5322 5314 5310 5316 5307 5304 5302 5297 5294 5293 5293
5467 5468 5468 5469 5469 5467 5465 5462 5458 5453 5448 5442 5437 5432 5425 5419 5413 5409 5404 5396 5387 5378 5371 5363 5355 5347 5340 5333 5327 5322 5316 5311 5307 5298 5291 5297 5299 5296 5294 5289 5283 5282 5282
5458 5458 5458 5458 5458 5456 5454 5451 5447 5441 5436 5430 5425 5419 5413 5407 5403 5399 5393 5383 5374 5364 5355 5346 5339 5331 5325 5317 5311 5305 5298 5294 5295 5291 5281 5279 5285 5284 5285 5282 5277 5273 5273
5450 5449 5448 5447 5446 5445 5444 5441 5436 5431 5424 5419 5413 5407 5401 5396 5392 5386 5378 5368 5358 5348 5339 5330 5321 5313 5307 5300 5296 5290 5284 5279 5277 5278 5275 5271 5270 5265 5275 5280 5272 5266 5265